Overview Statistics Trail Chart Weather Telemetry Raw packets
 

This is the latest recevied weather packets stored in our database for station/object IW2NTF-3. If no packets are shown the sender has not sent any weather packets the latest 10 day(s).

<< 542 543 544 545 546 547 548 >>
Time Temp. Humidity Pressure Rain* Wind** Luminosity Snow
1787911563 27.78° C 72% 1015.6 hPa 0 mm - 260 W/m² -
1787911503 27.78° C 73% 1015.6 hPa 0 mm - 295 W/m² -
1787911443 27.78° C 72% 1015.7 hPa 0 mm - 387 W/m² -
1787911383 27.78° C 73% 1015.7 hPa 0 mm - 770 W/m² -
1787911323 27.78° C 73% 1015.7 hPa 0 mm - 770 W/m² -
1787911263 27.78° C 73% 1015.8 hPa 0 mm - 835 W/m² -
1787911203 27.78° C 73% 1015.8 hPa 0 mm - 810 W/m² -
1787911143 27.78° C 73% 1015.9 hPa 0 mm - 803 W/m² -
1787911083 27.78° C 72% 1015.7 hPa 0 mm - 766 W/m² -
1787911023 27.78° C 73% 1015.7 hPa 0 mm - 763 W/m² -
1787910963 27.22° C 73% 1015.8 hPa 0 mm - 763 W/m² -
1787910903 27.22° C 73% 1015.9 hPa 0 mm - 684 W/m² -
1787910843 27.22° C 73% 1015.9 hPa 0 mm - 369 W/m² -
1787910783 27.22° C 73% 1015.8 hPa 0 mm - 279 W/m² -
1787910723 27.22° C 73% 1015.8 hPa 0 mm - 294 W/m² -
1787910663 27.22° C 73% 1015.8 hPa 0 mm - 308 W/m² -
1787910603 27.22° C 73% 1015.8 hPa 0 mm - 376 W/m² -
1787910543 27.22° C 73% 1015.8 hPa 0 mm - 715 W/m² -
1787910484 27.22° C 73% 1015.7 hPa 0 mm - 715 W/m² -
1787910423 27.22° C 74% 1015.7 hPa 0 mm - 343 W/m² -
1787910363 27.22° C 74% 1015.8 hPa 0 mm - 343 W/m² -
1787910303 27.22° C 73% 1015.8 hPa 0 mm - 295 W/m² -
1787910243 27.22° C 73% 1015.8 hPa 0 mm - 311 W/m² -
1787910183 27.22° C 74% 1015.8 hPa 0 mm - 680 W/m² -
1787910123 27.22° C 74% 1015.8 hPa 0 mm - 680 W/m² -

* Rain latest hour (hover to see other rain measurements)
** Current wind speed in m/s (hover to see current wind gust speed)